Lid_Strength_Index
1 1 2 2 2 2 2 3 4 5 5 5 5 5 5 5 5 6 9 5 2 -2 -1 1 1 2 2 4 4 4 12 12 11 10 9 6 7 5 4 6 5 4 5 4 2
1 2 2 2 2 2 3 3 5 5 5 5 5 5 5 5 6 9 4 -2 -1 -1 1 3 4 4 6 6 6 8 12 10 7 7 8 6 6 6 7 7 6 6 4 3 2
1 2 2 2 2 3 3 4 6 6 5 5 5 5 5 5 7 9 -1 -2 -1 -1 1 2 3 4 7 6 6 8 11 6 7 6 6 6 6 5 7 8 6 7 5 4 3
2 2 2 3 3 3 3 4 6 6 6 5 5 5 5 6 9 2 -1 -1 -2 2 2 3 4 6 8 8 6 9 6 6 6 5 6 7 6 7 6 6 4 4 4 4 4
2 2 2 3 3 3 3 4 6 6 6 5 5 5 7 10 11 -0 -1 -1 0 2 3 4 6 7 9 8 7 8 7 5 5 5 5 5 7 7 6 4 3 3 4 4 4
2 2 3 3 3 3 3 4 5 6 6 5 5 5 9 13 2 -0 0 0 1 2 3 3 5 5 7 7 8 7 7 6 6 6 6 7 7 6 6 4 4 4 4 4 4
2 3 3 3 3 4 4 4 4 5 5 5 5 5 9 10 0 -0 0 1 1 2 3 2 3 5 6 8 6 7 9 7 6 6 7 6 9 8 5 5 5 5 5 4 3
3 3 3 4 4 4 4 4 4 3 3 2 4 7 11 6 -0 1 2 2 1 1 2 2 2 4 5 5 7 9 9 13 7 6 6 7 13 7 5 5 6 5 5 4 4
3 4 4 4 4 4 5 4 3 3 2 1 7 9 11 0 2 1 1 3 2 2 2 1 3 6 6 10 12 11 14 12 10 6 7 8 11 7 5 6 6 6 5 4 4
4 4 4 4 4 5 5 4 3 3 2 2 3 10 8 5 2 2 1 1 3 3 4 5 6 9 9 11 16 14 14 12 12 9 8 9 10 7 6 6 6 6 5 5 5
4 4 4 5 5 5 6 7 8 9 8 9 8 6 5 6 3 3 2 3 3 5 9 6 10 12 11 9 9 10 12 13 11 8 10 10 10 8 7 6 7 6 6 6 5
4 4 4 5 5 5 7 10 7 8 11 7 6 5 5 7 7 4 3 5 6 9 7 9 10 8 8 8 9 10 12 13 11 9 10 11 10 9 8 7 6 6 6 6 5
4 4 5 5 5 7 8 7 5 7 11 9 7 8 8 6 6 5 4 5 7 9 9 10 8 6 8 10 10 11 12 13 13 11 10 11 12 11 8 7 6 5 5 5 5
4 5 5 5 7 7 6 6 6 8 14 12 11 8 7 7 8 5 3 5 7 9 8 9 6 7 9 10 10 15 9 10 12 13 16 11 18 13 10 9 7 6 6 5 5
4 4 5 5 8 7 5 6 7 9 17 8 10 7 7 7 8 7 4 5 8 8 9 10 9 9 10 10 9 11 8 10 11 13 14 14 16 14 10 11 9 7 6 5 4
4 4 5 6 7 5 4 5 8 14 16 10 8 10 10 10 8 7 7 5 6 8 10 9 8 9 8 7 7 7 9 10 11 14 18 14 15 15 13 10 9 7 6 5 5
5 6 6 5 6 5 5 9 14 16 10 11 11 11 11 10 9 8 9 10 11 13 13 12 11 10 7 10 9 9 13 17 17 19 19 13 15 13 10 8 8 8 6 5 5
7 7 7 5 6 5 8 12 16 12 12 10 11 12 12 10 10 9 10 10 9 10 12 13 13 12 9 9 10 10 13 16 18 17 16 14 17 13 8 7 7 6 6 5 5
7 7 8 6 5 6 11 16 15 12 10 10 11 13 14 11 12 12 11 11 9 9 12 14 13 9 9 9 7 10 12 11 14 15 16 15 13 10 9 9 8 7 7 7 6
9 7 8 4 5 9 12 14 12 9 9 11 13 12 14 12 12 13 13 10 10 9 10 11 14 10 9 8 8 10 9 13 15 17 18 15 16 16 12 11 9 9 8 7 6
7 8 6 7 8 12 15 14 10 8 9 11 12 13 13 12 13 13 12 9 9 9 10 12 13 12 11 13 13 12 13 12 14 15 17 18 17 11 11 10 10 8 7 7 7
7 9 6 8 12 14 15 13 9 10 9 11 11 12 12 12 13 12 12 10 8 9 11 11 14 15 13 11 10 11 12 13 14 15 15 15 17 9 9 9 8 8 7 7 7
9 9 6 9 15 15 13 11 9 11 12 12 11 10 10 12 13 11 10 8 8 8 11 10 14 16 14 13 10 12 11 13 14 15 15 16 17 9 9 9 8 8 7 6 7
8 9 8 11 13 13 13 12 10 8 9 9 11 11 11 12 12 12 10 8 8 8 5 8 14 15 16 14 11 12 10 11 13 15 15 16 15 12 10 10 8 7 6 7 7
6 8 7 10 9 9 11 11 10 10 8 8 9 9 10 11 11 11 9 9 8 6 8 11 14 12 12 10 9 10 10 10 11 12 14 14 14 12 10 9 8 7 7 7 7
7 8 7 9 9 10 11 11 10 9 10 9 10 8 9 12 11 11 10 11 11 8 10 10 13 12 13 9 9 10 10 9 9 11 13 13 13 9 8 7 8 7 7 8 8
5 5 7 9 9 10 10 9 8 8 8 8 8 10 8 8 8 9 9 9 9 10 10 10 11 13 14 11 11 13 11 10 10 10 12 14 12 9 9 8 8 7 7 7 7